Location: Unspecified
(0.0000°N, 0.0000°E)
Time: 21:03:05
(UTC+00:00)

CZ-3C DEB - Pass Details

Date: 09 March 2026
Orbit: 440 x 28021 km, 21.3° (Epoch: 10 April)

Event Time Altitude Azimuth Distance (km) Brightness Sun altitude
Rises 13:36:30 0° 276° (W) 6,009 ? 68.1°
Reaches altitude 10° 13:39:01 10° 281° (W) 5,766 ? 67.5°
Maximum altitude 19:30:38 68° 60° (ENE) 21,835 ? -20.0°
Enters shadow 20:44:27 43° 99° (E) 11,127 ? -38.4°
